[[{"header":{"parameterUnit":"m.s-1","parameterCategory":2,"la1":30.2991,"la2":30.254,"lo1":-89.0895,"lo2":-89.0444,"dy":0.0017,"dx":0.0017,"nx":28,"ny":28,"refTime":"2024-12-05T03:00:00:Z","depth":"0","parameterNumber":2,"parameterNumberName":"U-component_of_CURRENTS"},"data":[0,0,0,0,0,0,0,0,0,0,0,0,0,0,0,0,0,0,0,0,0,0,0,0,0,0,0,0,0,0,0,0,0,0,0,0,0,0,0,0,0,0,0,0,0,0,0,0,0,0,0,0,0,0,0,0,0,0,-0.2692,-0.2692,0,-0.2691,-0.2691,-0.2691,-0.2662,-0.2662,-0.2661,-0.2661,-0.2626,-0.2625,-0.2625,0,0,0,0,0,0,0,0,0,0,0,0,0,-0.2653,-0.2653,-0.2692,-0.2692,-0.2693,-0.2691,-0.2691,-0.2691,-0.2662,-0.2662,-0.2661,-0.2661,-0.2626,-0.2625,-0.2625,0,0,0,0,0,0,0,0,0,0,0,0,0,-0.266,-0.2654,-0.2692,-0.268,-0.268,-0.2691,-0.2691,-0.2691,-0.2662,-0.2662,-0.2661,-0.266,-0.2626,-0.2625,-0.2625,-0.2634,0,0,-0.2622,-0.2622,0,0,0,0,0,0,0,0,-0.2659,-0.2661,-0.2682,-0.2681,-0.268,-0.2679,-0.2664,-0.2671,-0.2663,-0.2666,-0.2661,-0.266,-0.2643,-0.2641,-0.2638,-0.2632,-0.2631,-0.2622,-0.2622,-0.2622,-0.2621,0,0,0,0,0,0,0,-0.2659,-0.2661,-0.2689,-0.2682,-0.2682,-0.267,-0.267,-0.2665,-0.2655,-0.2665,-0.2664,-0.2669,-0.2642,-0.2639,-0.2637,-0.263,-0.2622,-0.2622,-0.2621,-0.2621,-0.2634,-0.2635,0,0,0,0,0,0,-0.2667,-0.266,-0.2689,-0.2689,-0.2671,-0.2672,-0.2671,-0.2678,-0.2656,-0.2653,-0.267,-0.2668,-0.2641,-0.2638,-0.2636,-0.265,-0.2622,-0.2621,-0.262,-0.2633,-0.2634,-0.2635,0,0,0,0,0,0,-0.2666,-0.267,-0.2689,-0.2677,-0.2679,-0.2673,-0.268,-0.2678,-0.2675,-0.266,-0.2656,-0.2669,-0.264,-0.2637,-0.2637,-0.2648,-0.262,-0.262,-0.2632,-0.2634,-0.2635,-0.2676,0,0,0,0,0,0,-0.2665,-0.2669,-0.2671,-0.2678,-0.268,-0.2703,-0.2681,-0.2679,-0.268,-0.2678,-0.2658,-0.2654,-0.2639,-0.2638,-0.2636,-0.2647,-0.2619,-0.2631,-0.2633,-0.2634,-0.2673,-0.2678,-0.2682,0,0,0,0,0,-0.2664,-0.2674,-0.2672,-0.2675,-0.2685,-0.2704,-0.2704,-0.2695,-0.2681,-0.2687,-0.2673,-0.2655,-0.2646,-0.2639,-0.2636,-0.2646,-0.2631,-0.2633,-0.2634,-0.2671,-0.2677,-0.2682,0,0,0,0,0,0,-0.2658,-0.2673,-0.267,-0.2684,-0.2696,-0.2701,-0.2703,-0.2699,-0.2693,-0.2685,-0.2665,-0.2661,-0.2667,-0.2653,-0.2645,-0.2655,-0.2636,-0.2637,-0.2665,-0.267,-0.2674,-0.2677,-0.2619,0,0,0,0,0,-0.266,-0.2666,-0.2684,-0.2693,-0.2701,-0.2702,-0.2706,-0.2705,-0.2704,-0.2699,-0.2687,-0.2675,-0.2674,-0.2669,-0.2665,-0.267,-0.2658,-0.2675,-0.2679,-0.2683,-0.2685,-0.2681,-0.2686,-0.2641,-0.2641,-0.2641,0,0,-0.2657,-0.2667,-0.2669,-0.2691,-0.2695,-0.2715,-0.2702,-0.2714,-0.2725,-0.2697,-0.2701,-0.2692,-0.268,-0.2687,-0.2688,-0.2675,-0.2691,-0.2685,-0.2689,-0.2688,-0.2684,-0.2688,-0.2692,-0.2642,-0.2642,-0.2642,0,0,-0.2662,-0.2669,-0.2679,-0.2696,-0.2714,-0.2721,-0.2728,-0.2739,-0.2737,-0.2747,-0.273,-0.2731,-0.2723,-0.272,-0.2716,-0.2744,-0.2718,-0.274,-0.276,-0.2758,-0.2761,-0.2764,-0.2759,-0.2762,-0.2738,-0.2738,-0.2739,0,-0.2658,-0.2675,-0.2686,-0.2708,-0.2721,-0.2727,-0.2747,-0.2756,-0.2762,-0.2766,-0.2753,-0.2752,-0.274,-0.2753,-0.2759,-0.2754,-0.2744,-0.274,-0.2763,-0.2766,-0.2768,-0.2762,-0.2764,-0.2741,-0.274,-0.274,-0.274,0,-0.2675,-0.2692,-0.2702,-0.2729,-0.2748,-0.2766,-0.2788,-0.2801,-0.2798,-0.2803,-0.2814,-0.2802,-0.2799,-0.2799,-0.2785,-0.2799,-0.2784,-0.2772,-0.2748,-0.2775,-0.2767,-0.2769,-0.2744,-0.2743,-0.2742,-0.2742,0,0,-0.2653,-0.2703,-0.2705,-0.272,-0.276,-0.2774,-0.2807,-0.2833,-0.2845,-0.2852,-0.2863,-0.2866,-0.2854,-0.2849,-0.2836,-0.2832,-0.2839,-0.2806,-0.2805,-0.28,-0.283,-0.2825,-0.2825,-0.2827,-0.2827,-0.2827,-0.282,0,-0.2658,-0.2695,-0.2723,-0.2755,-0.2775,-0.2805,-0.2832,-0.2858,-0.2871,-0.2885,-0.2886,-0.2889,-0.2875,-0.2867,-0.2867,-0.2845,-0.2843,-0.2843,-0.2806,-0.2805,-0.2796,-0.2827,-0.2758,-0.2746,-0.2821,-0.2821,-0.2821,0,-0.2658,-0.2683,-0.2715,-0.2763,-0.2775,-0.2796,-0.2834,-0.2861,-0.2897,-0.2908,-0.2922,-0.2918,-0.2923,-0.29,-0.2889,-0.2886,-0.2862,-0.2846,-0.2845,-0.2826,-0.2803,-0.2731,-0.2745,-0.273,-0.2822,-0.2822,-0.2822,0,-0.2617,-0.2673,-0.2693,-0.2711,-0.277,-0.2786,-0.2813,-0.2856,-0.2881,-0.2913,-0.2931,-0.294,-0.2939,-0.292,-0.2901,-0.2886,-0.2886,-0.2858,-0.2837,-0.2836,-0.2764,-0.2756,-0.2756,-0.2851,-0.2851,-0.2851,-0.2851,0,-0.2602,-0.2615,-0.2672,-0.268,-0.2701,-0.2754,-0.2779,-0.2814,-0.2865,-0.2891,-0.2927,-0.2945,-0.2941,-0.2946,-0.2915,-0.2891,-0.2899,-0.2848,-0.2837,-0.2777,-0.2771,-0.2743,-0.2736,-0.285,-0.285,-0.285,-0.2851,0,-0.2543,-0.2587,-0.2608,-0.2664,-0.2679,-0.2687,-0.2752,-0.2771,-0.2836,-0.2871,-0.2882,-0.2946,-0.2951,-0.2957,-0.2931,-0.291,-0.2839,-0.2873,-0.2808,-0.2791,-0.2742,-0.2739,-0.2667,-0.2604,-0.2833,-0.2833,-0.2833,0,-0.2513,-0.2517,-0.257,-0.2576,-0.2596,-0.2626,-0.2646,-0.273,-0.276,-0.2864,-0.2872,-0.2919,-0.2938,-0.2936,-0.292,-0.2891,-0.2826,-0.2793,-0.2754,-0.2742,-0.273,-0.2681,-0.2628,-0.2671,-0.267,-0.2669,-0.2668,0,-0.2438,-0.2457,-0.2471,-0.2488,-0.2505,-0.2533,-0.2572,-0.2603,-0.2704,-0.276,-0.2823,-0.2856,-0.2905,-0.2878,-0.2876,-0.2824,-0.2724,-0.2769,-0.2763,-0.2618,-0.2553,-0.2485,-0.268,-0.2657,-0.2658,-0.2659,-0.266,-0.266,-0.2361,-0.2352,-0.2369,-0.2372,-0.2395,-0.2407,-0.2396,-0.2481,-0.2531,-0.2619,-0.272,-0.2809,-0.2835,-0.2835,-0.2784,-0.27,-0.2675,-0.2607,-0.2608,-0.2562,-0.249,-0.2675,-0.264,-0.2641,-0.2642,-0.2642,-0.2643,0,-0.2249,-0.2248,-0.225,-0.2249,-0.2225,-0.2278,-0.2313,-0.2295,-0.2327,-0.2519,-0.2593,-0.2785,-0.2736,-0.2749,-0.2699,-0.2586,-0.2476,-0.2488,-0.2396,-0.2351,-0.2522,-0.2506,-0.2432,-0.2432,-0.2432,-0.2432,-0.2432,-0.2432,-0.2189,-0.2142,-0.2144,-0.2061,-0.2062,-0.1991,-0.1983,-0.2004,-0.2105,-0.23,-0.2535,-0.2748,-0.2771,-0.283,-0.2665,-0.2524,-0.239,-0.23,-0.2294,-0.2432,-0.2443,-0.2453,-0.2438,-0.235,-0.235,-0.2052,-0.205,-0.2048]},{"header":{"parameterUnit":"m.s-1","parameterCategory":2,"la1":30.2991,"la2":30.254,"lo1":-89.0895,"lo2":-89.0444,"dy":0.0017,"dx":0.0017,"nx":28,"ny":28,"refTime":"2024-12-05T03:00:00:Z","depth":"0","parameterNumber":3,"parameterNumberName":"V-component_of_CURRENTS"},"data":[0,0,0,0,0,0,0,0,0,0,0,0,0,0,0,0,0,0,0,0,0,0,0,0,0,0,0,0,0,0,0,0,0,0,0,0,0,0,0,0,0,0,0,0,0,0,0,0,0,0,0,0,0,0,0,0,0,0,-0.0538,-0.0538,0,-0.0459,-0.0458,-0.0457,-0.0406,-0.0406,-0.0405,-0.0405,-0.0303,-0.03,-0.0298,0,0,0,0,0,0,0,0,0,0,0,0,0,-0.0592,-0.0592,-0.0538,-0.0538,-0.0537,-0.0459,-0.0458,-0.0456,-0.0406,-0.0406,-0.0405,-0.0405,-0.0304,-0.0301,-0.0298,0,0,0,0,0,0,0,0,0,0,0,0,0,-0.0546,-0.0592,-0.0539,-0.0503,-0.0499,-0.0459,-0.0458,-0.0456,-0.0406,-0.0406,-0.0405,-0.0405,-0.0305,-0.0301,-0.0297,-0.028,0,0,-0.0286,-0.0284,0,0,0,0,0,0,0,0,-0.0548,-0.0544,-0.0509,-0.0505,-0.0501,-0.0443,-0.0439,-0.0396,-0.0406,-0.044,-0.0405,-0.0405,-0.0348,-0.0341,-0.0326,-0.0275,-0.0271,-0.0285,-0.0283,-0.0281,-0.028,0,0,0,0,0,0,0,-0.0552,-0.0546,-0.0506,-0.0508,-0.0503,-0.0472,-0.0465,-0.043,-0.0396,-0.0437,-0.0434,-0.0426,-0.0346,-0.0329,-0.0323,-0.0269,-0.0285,-0.0282,-0.028,-0.0278,-0.0189,-0.0189,0,0,0,0,0,0,-0.0567,-0.055,-0.0508,-0.0504,-0.0525,-0.0472,-0.0464,-0.0461,-0.0397,-0.0387,-0.0427,-0.0424,-0.0336,-0.0327,-0.0319,-0.0293,-0.0281,-0.0278,-0.0276,-0.0189,-0.0189,-0.0189,0,0,0,0,0,0,-0.0568,-0.0564,-0.0512,-0.0525,-0.0517,-0.0471,-0.0468,-0.0459,-0.0444,-0.0389,-0.0379,-0.042,-0.0335,-0.0324,-0.029,-0.0289,-0.0276,-0.0273,-0.0189,-0.0189,-0.0189,-0.0243,0,0,0,0,0,0,-0.057,-0.0565,-0.0568,-0.0527,-0.0516,-0.0494,-0.0468,-0.0458,-0.044,-0.0436,-0.038,-0.037,-0.0334,-0.0296,-0.0286,-0.0284,-0.027,-0.0189,-0.0189,-0.0189,-0.0242,-0.0245,-0.0248,0,0,0,0,0,-0.0573,-0.058,-0.0569,-0.0564,-0.0523,-0.0494,-0.0486,-0.0452,-0.044,-0.0436,-0.0398,-0.0372,-0.0288,-0.0293,-0.0281,-0.0278,-0.0189,-0.0189,-0.0189,-0.024,-0.0244,-0.0248,0,0,0,0,0,0,-0.0603,-0.0574,-0.0562,-0.056,-0.0532,-0.0486,-0.048,-0.0457,-0.0423,-0.0421,-0.037,-0.0357,-0.0327,-0.0296,-0.0302,-0.0251,-0.0234,-0.0232,-0.0277,-0.028,-0.0284,-0.0298,-0.0267,0,0,0,0,0,-0.0613,-0.0613,-0.0576,-0.0575,-0.0565,-0.0524,-0.0509,-0.0487,-0.0451,-0.0436,-0.0396,-0.0354,-0.0317,-0.0295,-0.0258,-0.0231,-0.0198,-0.022,-0.0224,-0.0227,-0.023,-0.0182,-0.0182,-0.0188,-0.0188,-0.0188,0,0,-0.0625,-0.0609,-0.0608,-0.0582,-0.0558,-0.0549,-0.0514,-0.0497,-0.0485,-0.0431,-0.0404,-0.0365,-0.0313,-0.0282,-0.0265,-0.0255,-0.0208,-0.0226,-0.0229,-0.0231,-0.0182,-0.0182,-0.0181,-0.0188,-0.0188,-0.0188,0,0,-0.0651,-0.0635,-0.0644,-0.0626,-0.0599,-0.0571,-0.057,-0.0528,-0.0504,-0.0475,-0.0433,-0.0395,-0.034,-0.0299,-0.0273,-0.0271,-0.0229,-0.026,-0.0283,-0.0238,-0.0237,-0.0236,-0.0198,-0.0193,-0.0259,-0.0259,-0.0259,0,-0.0668,-0.0674,-0.0642,-0.0645,-0.0635,-0.0587,-0.0592,-0.056,-0.051,-0.0491,-0.0476,-0.0389,-0.0347,-0.0301,-0.0301,-0.0278,-0.0249,-0.0275,-0.0243,-0.0241,-0.0239,-0.02,-0.0193,-0.0262,-0.0261,-0.0261,-0.0261,0,-0.07,-0.0704,-0.0708,-0.0697,-0.068,-0.0677,-0.0632,-0.0609,-0.0577,-0.054,-0.0491,-0.0429,-0.0377,-0.0357,-0.0328,-0.0291,-0.0275,-0.0256,-0.0237,-0.0242,-0.02,-0.0192,-0.0265,-0.0264,-0.0264,-0.0263,0,0,-0.0742,-0.0735,-0.0736,-0.0744,-0.071,-0.0702,-0.0678,-0.0642,-0.0628,-0.0569,-0.0541,-0.0472,-0.0434,-0.0402,-0.0354,-0.0313,-0.0274,-0.0285,-0.0281,-0.0254,-0.0178,-0.0142,-0.013,-0.0251,-0.025,-0.0249,-0.0156,0,-0.0779,-0.0809,-0.0785,-0.0803,-0.0814,-0.0763,-0.0747,-0.0705,-0.0657,-0.0615,-0.0537,-0.0494,-0.0451,-0.0428,-0.0379,-0.0299,-0.0257,-0.0301,-0.0171,-0.0167,-0.014,-0.0121,-0.0131,-0.0047,-0.0149,-0.0148,-0.0147,0,-0.0821,-0.0836,-0.0868,-0.0864,-0.0863,-0.086,-0.0826,-0.0802,-0.0724,-0.0687,-0.0621,-0.0557,-0.0479,-0.0447,-0.0313,-0.0344,-0.027,-0.0208,-0.0203,-0.0145,-0.0117,-0.0056,-0.0029,0.0098,-0.0135,-0.0136,-0.0137,0,-0.0879,-0.0892,-0.0923,-0.0923,-0.0907,-0.0906,-0.0889,-0.0828,-0.081,-0.0729,-0.0706,-0.0598,-0.0545,-0.0437,-0.0301,-0.0309,-0.0153,-0.0144,-0.004,-0.0037,-0.0007,-0.0002,0.0153,-0.0054,-0.0054,-0.0054,-0.0055,0,-0.0934,-0.0956,-0.0956,-0.0975,-0.1006,-0.0966,-0.0974,-0.0936,-0.0881,-0.0861,-0.075,-0.0708,-0.0542,-0.0427,-0.0311,-0.0146,-0.0155,-0.0038,-0.0006,-0.0026,-0.0024,0.0119,0.0184,-0.0051,-0.0052,-0.0052,-0.0053,0,-0.0995,-0.0993,-0.1032,-0.1035,-0.1038,-0.1059,-0.1045,-0.1046,-0.0981,-0.0949,-0.0927,-0.0787,-0.0633,-0.0458,-0.0271,-0.0158,0.0073,0.0052,0.0016,0.0043,0.025,0.0311,0.0523,0.056,0.0177,0.0179,0.018,0,-0.1029,-0.1057,-0.1089,-0.1119,-0.1126,-0.1145,-0.1159,-0.1107,-0.1102,-0.0997,-0.0989,-0.083,-0.0715,-0.0414,-0.0188,0.004,0.0141,0.0168,0.0157,0.0272,0.0364,0.0418,0.0435,0.0174,0.0175,0.0176,0.0177,0,-0.1093,-0.1103,-0.1137,-0.1205,-0.1237,-0.1266,-0.1275,-0.1288,-0.1215,-0.1173,-0.1087,-0.0984,-0.0675,-0.0411,-0.0093,0.0043,0.0257,0.0194,0.0328,0.0392,0.0447,0.0493,0.0098,0.0185,0.0184,0.0183,0.0183,0.0183,-0.1134,-0.118,-0.1227,-0.1287,-0.1331,-0.1374,-0.1403,-0.1396,-0.1384,-0.1312,-0.1184,-0.1009,-0.0591,-0.0145,0.0014,0.0359,0.035,0.0451,0.052,0.0567,0.0599,0.0222,0.0337,0.0337,0.0337,0.0337,0.0337,0,-0.1186,-0.1235,-0.1304,-0.1375,-0.1442,-0.1436,-0.1471,-0.1487,-0.1484,-0.138,-0.1274,-0.0813,-0.0413,-0.0019,0.0495,0.0681,0.0695,0.0769,0.0835,0.0837,0.0517,0.051,0.0651,0.0651,0.0651,0.0651,0.065,0.065,-0.1214,-0.1294,-0.1332,-0.145,-0.1501,-0.157,-0.1592,-0.1596,-0.1538,-0.1374,-0.1127,-0.0927,-0.0271,0.06,0.1039,0.1051,0.1168,0.1168,0.1244,0.1019,0.0993,0.0969,0.0979,0.1216,0.1217,0.1508,0.1511,0.1514]}],[{"header":{"parameterUnit":"m.s-1","parameterCategory":2,"la1":30.2991,"la2":30.254,"lo1":-89.0895,"lo2":-89.0444,"dy":0.0017,"dx":0.0017,"nx":28,"ny":28,"refTime":"2024-12-05T03:00:00:Z","depth":"2","parameterNumber":2,"parameterNumberName":"U-component_of_CURRENTS"},"data":[0,0,0,0,0,0,0,0,0,0,0,0,0,0,0,0,0,0,0,0,0,0,0,0,0,0,0,0,0,0,0,0,0,0,0,0,0,0,0,0,0,0,0,0,0,0,0,0,0,0,0,0,0,0,0,0,0,0,-0.2648,-0.2648,0,-0.2648,-0.2648,-0.2648,-0.2621,-0.262,-0.262,-0.262,-0.2587,-0.2586,-0.2586,0,0,0,0,0,0,0,0,0,0,0,0,0,-0.2609,-0.261,-0.2648,-0.2648,-0.2649,-0.2648,-0.2648,-0.2648,-0.2621,-0.262,-0.262,-0.2619,-0.2587,-0.2586,-0.2586,0,0,0,0,0,0,0,0,0,0,0,0,0,-0.2616,-0.261,-0.2648,-0.2638,-0.2637,-0.2648,-0.2648,-0.2647,-0.2621,-0.262,-0.262,-0.2619,-0.2587,-0.2586,-0.2586,-0.2594,0,0,-0.2583,-0.2583,0,0,0,0,0,0,0,0,-0.2616,-0.2618,-0.2639,-0.2638,-0.2638,-0.2636,-0.2622,-0.2629,-0.2621,-0.2624,-0.262,-0.2619,-0.2603,-0.2601,-0.2598,-0.2592,-0.2591,-0.2583,-0.2583,-0.2583,-0.2582,0,0,0,0,0,0,0,-0.2616,-0.2617,-0.2645,-0.2639,-0.2639,-0.2628,-0.2628,-0.2623,-0.2614,-0.2624,-0.2622,-0.2627,-0.2602,-0.2599,-0.2597,-0.2591,-0.2583,-0.2583,-0.2582,-0.2582,-0.2596,-0.2597,0,0,0,0,0,0,-0.2624,-0.2617,-0.2645,-0.2645,-0.2628,-0.2629,-0.2629,-0.2635,-0.2615,-0.2612,-0.2628,-0.2626,-0.2601,-0.2598,-0.2596,-0.2612,-0.2583,-0.2582,-0.2582,-0.2595,-0.2596,-0.2597,0,0,0,0,0,0,-0.2623,-0.2626,-0.2645,-0.2633,-0.2635,-0.2631,-0.2637,-0.2635,-0.2633,-0.2619,-0.2615,-0.2628,-0.26,-0.2597,-0.2598,-0.261,-0.2582,-0.2581,-0.2594,-0.2596,-0.2597,-0.2638,0,0,0,0,0,0,-0.2622,-0.2626,-0.2628,-0.2634,-0.2637,-0.2659,-0.2638,-0.2636,-0.2639,-0.2636,-0.2618,-0.2614,-0.2599,-0.2599,-0.2597,-0.2608,-0.258,-0.2593,-0.2595,-0.2596,-0.2636,-0.2641,-0.2645,0,0,0,0,0,-0.262,-0.2631,-0.2628,-0.2631,-0.2642,-0.2661,-0.2661,-0.2653,-0.2639,-0.2646,-0.2632,-0.2615,-0.2607,-0.26,-0.2597,-0.2608,-0.2593,-0.2594,-0.2596,-0.2634,-0.264,-0.2645,0,0,0,0,0,0,-0.2615,-0.263,-0.2627,-0.264,-0.2653,-0.2657,-0.266,-0.2657,-0.2651,-0.2644,-0.2625,-0.2621,-0.2628,-0.2614,-0.2606,-0.2617,-0.2597,-0.2598,-0.2626,-0.2632,-0.2636,-0.2639,-0.258,0,0,0,0,0,-0.2617,-0.2623,-0.2641,-0.2649,-0.2658,-0.2659,-0.2663,-0.2662,-0.2662,-0.2658,-0.2647,-0.2635,-0.2634,-0.263,-0.2626,-0.2631,-0.262,-0.2637,-0.2642,-0.2645,-0.2647,-0.2644,-0.2648,-0.2603,-0.2603,-0.2603,0,0,-0.2614,-0.2624,-0.2626,-0.2648,-0.2652,-0.2672,-0.2659,-0.2672,-0.2683,-0.2656,-0.2661,-0.2653,-0.2641,-0.2648,-0.2649,-0.2636,-0.2654,-0.2648,-0.2651,-0.265,-0.2646,-0.265,-0.2654,-0.2604,-0.2604,-0.2604,0,0,-0.262,-0.2626,-0.2637,-0.2654,-0.2672,-0.2679,-0.2686,-0.2697,-0.2696,-0.2706,-0.269,-0.2692,-0.2684,-0.2681,-0.2678,-0.2706,-0.2681,-0.2703,-0.2723,-0.2721,-0.2724,-0.2727,-0.2723,-0.2725,-0.2701,-0.2701,-0.2701,0,-0.2616,-0.2633,-0.2643,-0.2665,-0.2678,-0.2685,-0.2705,-0.2713,-0.2721,-0.2725,-0.2713,-0.2713,-0.2702,-0.2715,-0.2721,-0.2716,-0.2707,-0.2703,-0.2726,-0.2729,-0.2731,-0.2726,-0.2728,-0.2703,-0.2703,-0.2703,-0.2703,0,-0.2633,-0.2649,-0.266,-0.2686,-0.2705,-0.2723,-0.2745,-0.2758,-0.2757,-0.2762,-0.2774,-0.2763,-0.276,-0.2761,-0.2747,-0.2761,-0.2747,-0.2735,-0.2711,-0.2738,-0.2731,-0.2732,-0.2707,-0.2706,-0.2705,-0.2705,0,0,-0.2611,-0.2661,-0.2662,-0.2677,-0.2717,-0.2731,-0.2764,-0.279,-0.2803,-0.2811,-0.2823,-0.2826,-0.2815,-0.2811,-0.2798,-0.2794,-0.2803,-0.277,-0.2768,-0.2764,-0.2794,-0.2788,-0.2788,-0.279,-0.2791,-0.2791,-0.2784,0,-0.2616,-0.2652,-0.2681,-0.2712,-0.2731,-0.2762,-0.2789,-0.2815,-0.2828,-0.2844,-0.2845,-0.2849,-0.2836,-0.2829,-0.2829,-0.2808,-0.2807,-0.2806,-0.277,-0.2769,-0.2759,-0.279,-0.2503,-0.2472,-0.2785,-0.2785,-0.2785,0,-0.2617,-0.2641,-0.2673,-0.272,-0.2732,-0.2753,-0.2791,-0.2819,-0.2854,-0.2866,-0.2881,-0.2878,-0.2884,-0.2862,-0.2851,-0.2849,-0.2826,-0.2809,-0.2808,-0.2788,-0.2765,-0.2496,-0.2463,-0.2787,-0.2787,-0.2787,-0.2787,0,-0.2576,-0.2632,-0.2652,-0.2669,-0.2727,-0.2744,-0.277,-0.2814,-0.2839,-0.2872,-0.289,-0.29,-0.29,-0.2882,-0.2864,-0.2849,-0.2849,-0.2823,-0.28,-0.2799,-0.2541,-0.2518,-0.2815,-0.2815,-0.2815,-0.2815,-0.2815,0,-0.2562,-0.2575,-0.2631,-0.2639,-0.266,-0.2713,-0.2739,-0.2773,-0.2824,-0.285,-0.2887,-0.2905,-0.2903,-0.2908,-0.2878,-0.2854,-0.2863,-0.2811,-0.2801,-0.255,-0.2529,-0.2787,-0.2784,-0.2815,-0.2815,-0.2815,-0.2815,0,-0.2504,-0.2548,-0.2568,-0.2624,-0.2639,-0.2647,-0.2712,-0.2731,-0.2796,-0.2831,-0.2843,-0.2906,-0.2912,-0.2918,-0.2894,-0.2873,-0.2847,-0.2836,-0.2553,-0.2511,-0.279,-0.2789,-0.2795,-0.2795,-0.2795,-0.2795,-0.2795,0,-0.2474,-0.2479,-0.2532,-0.2538,-0.2557,-0.2588,-0.2608,-0.2691,-0.272,-0.2824,-0.2831,-0.2879,-0.289,-0.2888,-0.2813,-0.2769,-0.2847,-0.2527,-0.2458,-0.2801,-0.279,-0.2789,-0.2788,-0.2119,-0.2113,-0.2109,-0.2105,0,-0.2401,-0.242,-0.2434,-0.2451,-0.2468,-0.2495,-0.2534,-0.2564,-0.2664,-0.2712,-0.2773,-0.2798,-0.2793,-0.2625,-0.26,-0.2533,-0.2513,-0.2438,-0.2834,-0.2203,-0.2172,-0.2159,-0.2178,-0.2064,-0.2068,-0.2071,-0.2073,-0.2075,-0.2326,-0.2317,-0.2334,-0.2337,-0.236,-0.237,-0.2359,-0.2413,-0.245,-0.2467,-0.2597,-0.2545,-0.2507,-0.2327,-0.2222,-0.2134,-0.2317,-0.2188,-0.2197,-0.2212,-0.217,-0.2144,-0.2021,-0.2025,-0.2028,-0.2031,-0.2033,0,-0.2206,-0.2214,-0.2216,-0.2215,-0.2179,-0.2244,-0.2276,-0.2215,-0.2198,-0.2246,-0.2253,-0.2023,-0.1914,-0.1905,-0.1697,-0.1692,-0.1611,-0.1624,-0.1481,-0.1523,-0.156,-0.1481,-0.1151,-0.1149,-0.1147,-0.1145,0,0,-0.2144,-0.2093,-0.2094,-0.2005,-0.2015,-0.1922,-0.1912,-0.1848,-0.1827,-0.1744,-0.1713,-0.1809,-0.186,-0.1506,-0.1411,-0.1257,-0.1377,-0.1187,-0.1885,-0.1758,-0.1792,-0.187,-0.1795,0,0,0,0,0]},{"header":{"parameterUnit":"m.s-1","parameterCategory":2,"la1":30.2991,"la2":30.254,"lo1":-89.0895,"lo2":-89.0444,"dy":0.0017,"dx":0.0017,"nx":28,"ny":28,"refTime":"2024-12-05T03:00:00:Z","depth":"2","parameterNumber":3,"parameterNumberName":"V-component_of_CURRENTS"},"data":[0,0,0,0,0,0,0,0,0,0,0,0,0,0,0,0,0,0,0,0,0,0,0,0,0,0,0,0,0,0,0,0,0,0,0,0,0,0,0,0,0,0,0,0,0,0,0,0,0,0,0,0,0,0,0,0,0,0,-0.0475,-0.0474,0,-0.0396,-0.0395,-0.0394,-0.0345,-0.0344,-0.0344,-0.0344,-0.0243,-0.024,-0.0238,0,0,0,0,0,0,0,0,0,0,0,0,0,-0.0528,-0.0528,-0.0475,-0.0474,-0.0473,-0.0396,-0.0395,-0.0394,-0.0345,-0.0344,-0.0344,-0.0344,-0.0244,-0.0241,-0.0238,0,0,0,0,0,0,0,0,0,0,0,0,0,-0.0482,-0.0527,-0.0475,-0.044,-0.0436,-0.0396,-0.0395,-0.0393,-0.0345,-0.0344,-0.0344,-0.0344,-0.0245,-0.0241,-0.0237,-0.0219,0,0,-0.0226,-0.0224,0,0,0,0,0,0,0,0,-0.0485,-0.048,-0.0446,-0.0443,-0.0438,-0.0381,-0.0376,-0.0334,-0.0345,-0.0378,-0.0344,-0.0344,-0.0288,-0.028,-0.0265,-0.0214,-0.021,-0.0225,-0.0223,-0.0221,-0.022,0,0,0,0,0,0,0,-0.0488,-0.0483,-0.0443,-0.0445,-0.044,-0.0409,-0.0403,-0.0368,-0.0334,-0.0376,-0.0372,-0.0365,-0.0285,-0.0269,-0.0262,-0.0209,-0.0226,-0.0222,-0.022,-0.0218,-0.0129,-0.0129,0,0,0,0,0,0,-0.0503,-0.0486,-0.0445,-0.044,-0.0462,-0.0409,-0.0402,-0.0399,-0.0335,-0.0326,-0.0365,-0.0363,-0.0275,-0.0267,-0.0259,-0.0234,-0.0221,-0.0218,-0.0216,-0.013,-0.0129,-0.0129,0,0,0,0,0,0,-0.0504,-0.05,-0.0448,-0.0462,-0.0453,-0.0409,-0.0405,-0.0397,-0.0382,-0.0328,-0.0318,-0.0359,-0.0275,-0.0264,-0.023,-0.023,-0.0216,-0.0213,-0.013,-0.0129,-0.0129,-0.0184,0,0,0,0,0,0,-0.0506,-0.0501,-0.0505,-0.0463,-0.0453,-0.0431,-0.0406,-0.0396,-0.0379,-0.0375,-0.0319,-0.0309,-0.0274,-0.0236,-0.0226,-0.0224,-0.021,-0.013,-0.013,-0.0129,-0.0183,-0.0186,-0.0189,0,0,0,0,0,-0.0509,-0.0516,-0.0506,-0.0501,-0.046,-0.0431,-0.0423,-0.0389,-0.0379,-0.0375,-0.0337,-0.0311,-0.0228,-0.0233,-0.0221,-0.0218,-0.013,-0.013,-0.0129,-0.0181,-0.0185,-0.0189,0,0,0,0,0,0,-0.0539,-0.0511,-0.0498,-0.0497,-0.0469,-0.0423,-0.0417,-0.0395,-0.0362,-0.036,-0.031,-0.0297,-0.0267,-0.0236,-0.0242,-0.0192,-0.0175,-0.0172,-0.0218,-0.0221,-0.0224,-0.0239,-0.0207,0,0,0,0,0,-0.055,-0.0549,-0.0513,-0.0512,-0.0502,-0.0462,-0.0447,-0.0425,-0.039,-0.0375,-0.0335,-0.0294,-0.0257,-0.0235,-0.0199,-0.0171,-0.0139,-0.0161,-0.0165,-0.0168,-0.0171,-0.0124,-0.0123,-0.0129,-0.0129,-0.0129,0,0,-0.0561,-0.0546,-0.0545,-0.0519,-0.0496,-0.0487,-0.0452,-0.0435,-0.0424,-0.037,-0.0344,-0.0305,-0.0253,-0.0222,-0.0206,-0.0196,-0.0149,-0.0167,-0.017,-0.0172,-0.0123,-0.0123,-0.0122,-0.0129,-0.0129,-0.0129,0,0,-0.0588,-0.0572,-0.0582,-0.0563,-0.0536,-0.0509,-0.0508,-0.0466,-0.0443,-0.0415,-0.0373,-0.0336,-0.0281,-0.024,-0.0214,-0.0212,-0.017,-0.0201,-0.0225,-0.018,-0.0179,-0.0178,-0.014,-0.0135,-0.0201,-0.0201,-0.0201,0,-0.0605,-0.0611,-0.0579,-0.0582,-0.0573,-0.0525,-0.053,-0.0498,-0.0449,-0.043,-0.0416,-0.0329,-0.0288,-0.0242,-0.0243,-0.022,-0.0191,-0.0217,-0.0185,-0.0183,-0.0181,-0.0142,-0.0136,-0.0203,-0.0203,-0.0203,-0.0202,0,-0.0637,-0.0641,-0.0645,-0.0635,-0.0617,-0.0615,-0.057,-0.0548,-0.0517,-0.048,-0.0431,-0.037,-0.0319,-0.0298,-0.027,-0.0234,-0.0217,-0.0198,-0.0179,-0.0184,-0.0143,-0.0135,-0.0207,-0.0206,-0.0205,-0.0205,0,0,-0.068,-0.0672,-0.0674,-0.0681,-0.0647,-0.0639,-0.0616,-0.058,-0.0566,-0.0509,-0.0481,-0.0413,-0.0376,-0.0344,-0.0296,-0.0255,-0.0218,-0.0228,-0.0224,-0.0197,-0.0122,-0.0088,-0.0076,-0.0194,-0.0193,-0.0192,-0.0101,0,-0.0717,-0.0746,-0.0722,-0.074,-0.0751,-0.0701,-0.0684,-0.0642,-0.0596,-0.0555,-0.0477,-0.0435,-0.0393,-0.037,-0.0321,-0.0243,-0.02,-0.0245,-0.0115,-0.0111,-0.0085,-0.0067,-0.0071,0.0013,-0.0093,-0.0092,-0.0091,0,-0.0759,-0.0773,-0.0805,-0.0801,-0.0799,-0.0797,-0.0763,-0.0739,-0.0663,-0.0626,-0.0561,-0.0497,-0.0421,-0.0389,-0.0256,-0.0288,-0.0214,-0.0152,-0.0147,-0.0091,-0.0063,0.0004,0.0031,-0.0078,-0.0079,-0.008,-0.0081,0,-0.0817,-0.0829,-0.086,-0.0859,-0.0843,-0.0843,-0.0826,-0.0766,-0.0748,-0.0668,-0.0645,-0.0539,-0.0487,-0.038,-0.0246,-0.0253,-0.0099,-0.0089,0.0013,0.0016,0.0052,0.0056,0.0001,0.0,0.0,0.0,-0.0,0,-0.0872,-0.0894,-0.0893,-0.0912,-0.0942,-0.0903,-0.0911,-0.0874,-0.0819,-0.08,-0.069,-0.0648,-0.0484,-0.037,-0.0255,-0.0092,-0.01,0.0015,0.0047,0.0033,0.0034,-0.0015,-0.0018,0.0003,0.0003,0.0002,0.0001,0,-0.0932,-0.0931,-0.0969,-0.0972,-0.0975,-0.0996,-0.0982,-0.0983,-0.0919,-0.0888,-0.0866,-0.0727,-0.0575,-0.0402,-0.0216,-0.0105,0.0046,0.0103,0.0074,0.0102,0.0129,0.0122,0.0222,0.0224,0.0226,0.0228,0.0229,0,-0.0967,-0.0994,-0.1026,-0.1056,-0.1063,-0.1082,-0.1096,-0.1045,-0.1039,-0.0936,-0.0927,-0.077,-0.0654,-0.0356,-0.0126,0.0101,0.009,0.0223,0.0213,0.0133,0.0154,0.0144,0.0135,0.0237,0.0239,0.024,0.024,0,-0.103,-0.1041,-0.1074,-0.1142,-0.1174,-0.1202,-0.1211,-0.1223,-0.1151,-0.1106,-0.102,-0.0915,-0.0606,-0.0337,-0.002,0.0111,0.0189,0.025,0.0192,0.0178,0.0154,0.0172,0.0161,0.0249,0.0248,0.0248,0.0247,0.0247,-0.1071,-0.1117,-0.1164,-0.1224,-0.1268,-0.131,-0.1338,-0.1308,-0.1289,-0.118,-0.1085,-0.088,-0.0607,-0.0148,0.0075,0.0292,0.0269,0.0332,0.0326,0.032,0.0301,0.0281,0.0397,0.0397,0.0397,0.0397,0.0397,0,-0.1112,-0.1172,-0.124,-0.1311,-0.1362,-0.1372,-0.1406,-0.1376,-0.1338,-0.1203,-0.1072,-0.0742,-0.0419,-0.0141,0.0211,0.0407,0.0394,0.0438,0.0383,0.0374,0.0366,0.0347,0.0456,0.0457,0.0458,0.0458,0,0,-0.1137,-0.1211,-0.1248,-0.1356,-0.1419,-0.1457,-0.1478,-0.1404,-0.1301,-0.1147,-0.0984,-0.0746,-0.0417,-0.015,0.0106,0.0286,0.0272,0.0305,0.0238,0.0134,0.0123,0.0291,0.0249,0,0,0,0,0]}],[{"header":{"parameterUnit":"m.s-1","parameterCategory":2,"la1":30.2991,"la2":30.254,"lo1":-89.0895,"lo2":-89.0444,"dy":0.0017,"dx":0.0017,"nx":28,"ny":28,"refTime":"2024-12-05T03:00:00:Z","depth":"4","parameterNumber":2,"parameterNumberName":"U-component_of_CURRENTS"},"data":[0,0,0,0,0,0,0,0,0,0,0,0,0,0,0,0,0,0,0,0,0,0,0,0,0,0,0,0,0,0,0,0,0,0,0,0,0,0,0,0,0,0,0,0,0,0,0,0,0,0,0,0,0,0,0,0,0,0,-0.171,-0.1711,0,-0.1757,-0.1758,-0.1758,-0.1795,-0.1795,-0.1796,-0.1796,-0.1847,-0.1848,-0.1849,0,0,0,0,0,0,0,0,0,0,0,0,0,-0.164,-0.1641,-0.171,-0.1711,-0.1711,-0.1757,-0.1758,-0.1758,-0.1794,-0.1795,-0.1796,-0.1796,-0.1847,-0.1848,-0.1849,0,0,0,0,0,0,0,0,0,0,0,0,0,-0.1676,-0.1642,-0.171,-0.1736,-0.1739,-0.1757,-0.1758,-0.1759,-0.1794,-0.1795,-0.1796,-0.1796,-0.1846,-0.1848,-0.1849,-0.1843,0,0,-0.1853,-0.1854,0,0,0,0,0,0,0,0,-0.1674,-0.1678,-0.1732,-0.1734,-0.1738,-0.1772,-0.1752,-0.1788,-0.1794,-0.1772,-0.1796,-0.1797,-0.1823,-0.1826,-0.1831,-0.1845,-0.1848,-0.1853,-0.1854,-0.1855,-0.1855,0,0,0,0,0,0,0,-0.1671,-0.1676,-0.1727,-0.1732,-0.1736,-0.1742,-0.1748,-0.1759,-0.1791,-0.1774,-0.1777,-0.1784,-0.1825,-0.183,-0.1833,-0.1848,-0.1853,-0.1855,-0.1855,-0.1856,-0.1941,-0.1943,0,0,0,0,0,0,-0.1669,-0.1674,-0.1726,-0.1729,-0.1709,-0.1743,-0.1749,-0.1759,-0.1791,-0.1797,-0.1784,-0.1786,-0.1827,-0.1831,-0.1835,-0.1907,-0.1855,-0.1856,-0.1857,-0.194,-0.1942,-0.1943,0,0,0,0,0,0,-0.1667,-0.1673,-0.1724,-0.1704,-0.1711,-0.1744,-0.1754,-0.176,-0.1795,-0.1799,-0.1805,-0.1816,-0.1828,-0.1833,-0.1874,-0.1906,-0.1857,-0.1858,-0.1938,-0.194,-0.1942,-0.2001,0,0,0,0,0,0,-0.1665,-0.1672,-0.1691,-0.1703,-0.1712,-0.1757,-0.1754,-0.176,-0.1797,-0.1801,-0.1829,-0.1832,-0.1829,-0.1872,-0.1875,-0.1907,-0.1859,-0.1936,-0.1939,-0.1942,-0.1997,-0.2005,-0.2011,0,0,0,0,0,-0.1662,-0.1682,-0.1692,-0.1699,-0.1733,-0.1758,-0.1764,-0.1787,-0.1798,-0.182,-0.1841,-0.1833,-0.1891,-0.1874,-0.1878,-0.1911,-0.1935,-0.1938,-0.1942,-0.1994,-0.2003,-0.2011,0,0,0,0,0,0,-0.1664,-0.1688,-0.1699,-0.1727,-0.1752,-0.1765,-0.1791,-0.1804,-0.1837,-0.1849,-0.1851,-0.1857,-0.1904,-0.19,-0.1881,-0.1943,-0.1912,-0.1916,-0.1951,-0.1959,-0.1966,-0.1959,-0.186,0,0,0,0,0,-0.1672,-0.1694,-0.1716,-0.1742,-0.1757,-0.1779,-0.1798,-0.1815,-0.1838,-0.1855,-0.1875,-0.1896,-0.1915,-0.1932,-0.1947,-0.1981,-0.1964,-0.2005,-0.2012,-0.2018,-0.2016,-0.2018,-0.2024,-0.1954,-0.1954,-0.1954,0,0,-0.168,-0.1697,-0.1711,-0.1745,-0.1766,-0.1794,-0.1793,-0.1831,-0.1862,-0.1854,-0.1912,-0.1924,-0.193,-0.197,-0.199,-0.1975,-0.2031,-0.2023,-0.2028,-0.2021,-0.2022,-0.2028,-0.2034,-0.1956,-0.1956,-0.1955,0,0,-0.1697,-0.1724,-0.1747,-0.1772,-0.1811,-0.1825,-0.1843,-0.1877,-0.1904,-0.1951,-0.1954,-0.1987,-0.2022,-0.2031,-0.2037,-0.2092,-0.2068,-0.2104,-0.2136,-0.2139,-0.2144,-0.2149,-0.2139,-0.2142,-0.2108,-0.2108,-0.2108,0,-0.1709,-0.1737,-0.1759,-0.1787,-0.1813,-0.1842,-0.1874,-0.1903,-0.195,-0.1973,-0.1981,-0.2037,-0.2047,-0.2083,-0.2105,-0.2108,-0.21,-0.2103,-0.2147,-0.2151,-0.2155,-0.2143,-0.2146,-0.2111,-0.2111,-0.2111,-0.211,0,-0.1731,-0.1768,-0.1787,-0.183,-0.1862,-0.1897,-0.1936,-0.1979,-0.2014,-0.2037,-0.2095,-0.211,-0.2138,-0.2153,-0.2147,-0.2183,-0.2166,-0.2154,-0.2122,-0.2165,-0.2151,-0.2153,-0.2116,-0.2115,-0.2114,-0.2113,0,0,-0.1714,-0.1788,-0.1797,-0.1827,-0.189,-0.1913,-0.1975,-0.2026,-0.2063,-0.2115,-0.2156,-0.2199,-0.2207,-0.2214,-0.2217,-0.2224,-0.2247,-0.2205,-0.2204,-0.219,-0.2247,-0.2117,-0.2106,-0.2244,-0.2245,-0.2245,-0.2227,0,-0.1726,-0.1781,-0.1819,-0.1881,-0.1911,-0.1965,-0.2015,-0.2069,-0.2114,-0.2162,-0.2191,-0.223,-0.2231,-0.2248,-0.2259,-0.2249,-0.2254,-0.2252,-0.2212,-0.221,-0.2085,-0.2105,-0.2247,-0.2229,-0.2229,-0.2229,-0.2229,0,-0.1724,-0.1763,-0.1824,-0.1902,-0.1922,-0.1968,-0.2046,-0.2096,-0.2167,-0.2202,-0.2248,-0.2267,-0.23,-0.2287,-0.2295,-0.2296,-0.2277,-0.2264,-0.2263,-0.2119,-0.2083,-0.2176,-0.2232,-0.2231,-0.2231,-0.2231,-0.2231,0,-0.1675,-0.1763,-0.1812,-0.184,-0.1934,-0.1978,-0.2031,-0.2109,-0.2151,-0.2226,-0.2257,-0.2299,-0.2322,-0.2315,-0.2304,-0.2302,-0.2294,-0.2284,-0.215,-0.214,-0.2237,-0.2232,-0.228,-0.228,-0.228,-0.228,-0.228,0,-0.1648,-0.1691,-0.1799,-0.1823,-0.1884,-0.196,-0.2027,-0.2085,-0.2165,-0.2199,-0.2272,-0.2288,-0.2331,-0.2334,-0.2312,-0.223,-0.2302,-0.2148,-0.2124,-0.2263,-0.2262,-0.2238,-0.2233,-0.2279,-0.2279,-0.2279,-0.2279,0,-0.1576,-0.1653,-0.1713,-0.1823,-0.1862,-0.1904,-0.2017,-0.2051,-0.2146,-0.219,-0.2215,-0.2289,-0.2285,-0.2307,-0.2293,-0.2223,-0.2169,-0.2123,-0.2271,-0.2257,-0.2011,-0.201,-0.1958,-0.1953,-0.1949,-0.1945,-0.1943,0,-0.1539,-0.1566,-0.1693,-0.1728,-0.1782,-0.1863,-0.1907,-0.2022,-0.2052,-0.2164,-0.216,-0.2211,-0.2239,-0.2112,-0.2155,-0.2099,-0.2077,-0.2035,-0.2018,-0.1993,-0.1977,-0.1982,-0.1987,-0.1936,-0.1935,-0.1934,-0.1933,0,-0.1459,-0.1522,-0.1569,-0.1641,-0.1701,-0.1759,-0.1831,-0.1841,-0.1956,-0.2067,-0.2042,-0.2032,-0.2028,-0.201,-0.1987,-0.1949,-0.2052,-0.1992,-0.2,-0.1984,-0.1967,-0.1955,-0.1964,-0.1919,-0.1921,-0.1922,-0.1923,0,-0.1398,-0.1411,-0.1482,-0.1526,-0.16,-0.1614,-0.1678,-0.1703,-0.1751,-0.1877,-0.1863,-0.1921,-0.2002,-0.1931,-0.1908,-0.1863,-0.183,-0.1761,-0.1781,-0.1797,-0.1753,-0.1708,-0.1551,0,0,0,0,0,-0.1323,-0.132,-0.1356,-0.1397,-0.1463,-0.1501,-0.16,-0.1666,-0.1783,-0.1716,-0.1784,-0.177,-0.1738,-0.1772,-0.1689,-0.1835,-0.184,-0.1731,-0.1772,-0.1841,-0.1857,-0.182,0,0,0,0,0,0,-0.1273,-0.1303,-0.1308,-0.127,-0.1273,-0.1327,-0.1382,-0.147,-0.1444,-0.157,-0.156,-0.1657,-0.1651,-0.1752,-0.1649,-0.1659,-0.1647,-0.178,-0.1775,-0.1832,-0.1846,-0.1859,-0.1827,0,0,0,0,0]},{"header":{"parameterUnit":"m.s-1","parameterCategory":2,"la1":30.2991,"la2":30.254,"lo1":-89.0895,"lo2":-89.0444,"dy":0.0017,"dx":0.0017,"nx":28,"ny":28,"refTime":"2024-12-05T03:00:00:Z","depth":"4","parameterNumber":3,"parameterNumberName":"V-component_of_CURRENTS"},"data":[0,0,0,0,0,0,0,0,0,0,0,0,0,0,0,0,0,0,0,0,0,0,0,0,0,0,0,0,0,0,0,0,0,0,0,0,0,0,0,0,0,0,0,0,0,0,0,0,0,0,0,0,0,0,0,0,0,0,-0.0134,-0.0134,0,-0.0087,-0.0086,-0.0086,-0.0055,-0.0055,-0.0055,-0.0055,0.0015,0.0017,0.0019,0,0,0,0,0,0,0,0,0,0,0,0,0,-0.0154,-0.0154,-0.0134,-0.0134,-0.0133,-0.0087,-0.0086,-0.0086,-0.0055,-0.0055,-0.0055,-0.0055,0.0015,0.0017,0.0019,0,0,0,0,0,0,0,0,0,0,0,0,0,-0.0129,-0.0154,-0.0134,-0.0113,-0.0111,-0.0087,-0.0086,-0.0085,-0.0055,-0.0055,-0.0055,-0.0055,0.0014,0.0017,0.0019,0.0032,0,0,0.0027,0.0029,0,0,0,0,0,0,0,0,-0.0131,-0.0128,-0.0117,-0.0114,-0.0112,-0.0077,-0.0067,-0.0045,-0.0055,-0.0076,-0.0055,-0.0055,-0.0014,-0.0009,0.0,0.0035,0.0038,0.0028,0.0029,0.003,0.0031,0,0,0,0,0,0,0,-0.0133,-0.013,-0.0115,-0.0116,-0.0113,-0.0091,-0.0087,-0.0063,-0.0045,-0.0074,-0.0072,-0.0068,-0.0012,-0.0003,0.0002,0.004,0.0028,0.003,0.0032,0.0033,0.0087,0.0087,0,0,0,0,0,0,-0.0142,-0.0132,-0.0116,-0.0113,-0.0122,-0.0091,-0.0087,-0.0088,-0.0046,-0.004,-0.0068,-0.0066,-0.0007,-0.0001,0.0005,0.0012,0.003,0.0033,0.0034,0.0087,0.0087,0.0087,0,0,0,0,0,0,-0.0143,-0.0142,-0.0118,-0.0122,-0.0117,-0.0091,-0.0092,-0.0087,-0.0081,-0.0042,-0.0035,-0.0068,-0.0007,0.0001,0.0021,0.0015,0.0034,0.0037,0.0087,0.0087,0.0087,0.0033,0,0,0,0,0,0,-0.0144,-0.0142,-0.0149,-0.0123,-0.0118,-0.0111,-0.0092,-0.0086,-0.0079,-0.0077,-0.004,-0.0033,-0.0006,0.0017,0.0023,0.0019,0.0039,0.0087,0.0087,0.0087,0.0035,0.0031,0.0027,0,0,0,0,0,-0.0145,-0.0155,-0.015,-0.0148,-0.0127,-0.0112,-0.0107,-0.0087,-0.008,-0.008,-0.0055,-0.0034,0.002,0.0018,0.0027,0.0023,0.0088,0.0087,0.0087,0.0036,0.0031,0.0027,0,0,0,0,0,0,-0.0166,-0.0152,-0.0146,-0.0151,-0.0136,-0.0107,-0.0107,-0.0093,-0.0074,-0.0074,-0.0036,-0.0027,-0.0012,0.0013,0.0011,0.0038,0.0057,0.0059,0.0016,0.0012,0.0008,-0.0002,0.0041,0,0,0,0,0,-0.0175,-0.0181,-0.016,-0.0165,-0.0161,-0.0136,-0.0128,-0.0116,-0.0094,-0.0086,-0.0059,-0.003,-0.0006,0.0008,0.0033,0.0047,0.0077,0.0051,0.0047,0.0044,0.0041,0.0079,0.0078,0.0086,0.0086,0.0086,0,0,-0.0185,-0.0178,-0.0182,-0.0171,-0.0158,-0.0158,-0.0131,-0.0126,-0.0124,-0.0081,-0.0072,-0.0043,-0.0005,0.0011,0.002,0.003,0.0058,0.0043,0.004,0.0039,0.0079,0.0078,0.0077,0.0085,0.0085,0.0086,0,0,-0.0208,-0.0203,-0.0215,-0.0208,-0.0195,-0.0179,-0.0181,-0.0157,-0.0145,-0.0133,-0.0101,-0.0077,-0.0042,-0.0013,0.0005,-0.0003,0.0036,0.0004,-0.0022,0.0015,0.0014,0.0014,0.0051,0.0054,0.0003,0.0003,0.0003,0,-0.0222,-0.0235,-0.0216,-0.0225,-0.0224,-0.0193,-0.0205,-0.0187,-0.0159,-0.015,-0.0139,-0.0082,-0.0052,-0.0025,-0.003,-0.0012,0.0015,-0.001,0.0009,0.001,0.0011,0.0048,0.0053,0.0,0.0001,0.0001,0.0001,0,-0.0252,-0.0263,-0.027,-0.0273,-0.0268,-0.0273,-0.0249,-0.024,-0.0223,-0.02,-0.0173,-0.0128,-0.0095,-0.0081,-0.0059,-0.0037,-0.0018,-0.0002,0.0018,0.0007,0.0047,0.0053,-0.0003,-0.0003,-0.0002,-0.0001,0,0,-0.0278,-0.0291,-0.0294,-0.0308,-0.0296,-0.0297,-0.0292,-0.0277,-0.0275,-0.0239,-0.0227,-0.0182,-0.0154,-0.0131,-0.0094,-0.0062,-0.0033,-0.0036,-0.0033,-0.0005,0.0048,0.0048,0.0055,-0.0015,-0.0014,-0.0014,0.0073,0,-0.0309,-0.0344,-0.0337,-0.0366,-0.038,-0.0355,-0.0354,-0.0335,-0.0309,-0.0287,-0.0232,-0.0207,-0.0174,-0.0159,-0.0122,-0.0055,-0.002,-0.0058,0.0059,0.0063,0.006,0.0061,-0.0011,0.0078,0.0079,0.008,0.0081,0,-0.0339,-0.036,-0.0399,-0.0417,-0.0421,-0.0432,-0.0426,-0.0419,-0.0375,-0.0354,-0.0312,-0.0266,-0.0211,-0.0183,-0.0074,-0.0101,-0.0035,0.002,0.0025,0.0047,0.0074,0.0093,0.0092,0.0091,0.0091,0.009,0.0089,0,-0.0369,-0.0402,-0.0438,-0.0445,-0.0457,-0.047,-0.0472,-0.0444,-0.0441,-0.0394,-0.0383,-0.0306,-0.0268,-0.0178,-0.0066,-0.0071,0.0059,0.007,0.0136,0.0137,0.0135,0.0134,0.0147,0.0147,0.0146,0.0146,0.0146,0,-0.04,-0.043,-0.0461,-0.0482,-0.0524,-0.0514,-0.0541,-0.0526,-0.0502,-0.0497,-0.0423,-0.0393,-0.0267,-0.0175,-0.0074,0.005,0.0056,0.0132,0.0159,0.0111,0.0106,0.014,0.0138,0.0149,0.0149,0.0148,0.0147,0,-0.0423,-0.0443,-0.0491,-0.0526,-0.0543,-0.0572,-0.06,-0.061,-0.0581,-0.0569,-0.0557,-0.0458,-0.0339,-0.0202,-0.0045,0.0034,0.0157,0.0201,0.0141,0.0163,0.0212,0.0207,0.0276,0.0277,0.0277,0.0278,0.0278,0,-0.0435,-0.0463,-0.053,-0.0569,-0.0592,-0.0635,-0.0662,-0.0654,-0.0659,-0.0603,-0.0596,-0.0485,-0.0403,-0.0179,-0.0038,0.0158,0.0184,0.0248,0.0225,0.0206,0.0225,0.0219,0.0212,0.0279,0.0279,0.028,0.028,0,-0.0457,-0.0486,-0.0526,-0.0609,-0.0659,-0.0707,-0.0743,-0.0752,-0.0726,-0.0705,-0.0619,-0.0494,-0.0355,-0.0182,-0.0027,0.0113,0.0204,0.0254,0.0254,0.0233,0.0211,0.0228,0.0221,0.0282,0.0282,0.0281,0.0281,0,-0.0469,-0.0508,-0.0568,-0.0635,-0.0705,-0.0755,-0.0773,-0.0768,-0.0764,-0.0696,-0.0667,-0.0506,-0.0412,-0.0204,-0.0059,0.0076,0.0105,0.0144,0.015,0.0149,0.0085,0.0037,0.0077,0,0,0,0,0,-0.0474,-0.052,-0.059,-0.0663,-0.0732,-0.0771,-0.0812,-0.0815,-0.0793,-0.0741,-0.0702,-0.0567,-0.0342,-0.0241,-0.0107,-0.0056,0.0122,0.0105,0.0167,0.0293,0.0291,0.0236,0,0,0,0,0,0,-0.048,-0.0546,-0.0585,-0.0666,-0.0721,-0.079,-0.0819,-0.0808,-0.0772,-0.0731,-0.0614,-0.0538,-0.0325,-0.042,-0.0105,-0.0063,-0.0005,0.0213,0.0216,0.0295,0.0293,0.0291,0.0234,0,0,0,0,0]}]]